• In Germany
  • List of Countries
  • For 7 days
  • Water Temperature
  • Satellite Maps
  • Weather Map
  • Weather Widgets
  • user-avatar
    Login

    Hourly Weather Thessaloniki

    Today, 15 December, Friday

    Time Temperature Precipitation Wind Pressure Humidity
    00:00 +12°C° 0 mm 1 mps 757 mmHg 65%
    01:00 +12°C° 0 mm 1 mps 757 mmHg 65%
    02:00 +11°C° 0 mm 1 mps 757 mmHg 66%
    03:00 +11°C° 0 mm 1 mps 757 mmHg 66%
    04:00 +11°C° 0 mm 1 mps 757 mmHg 67%
    05:00 +11°C° 0 mm 1 mps 757 mmHg 67%
    06:00 +10°C° 0 mm 1 mps 757 mmHg 68%
    07:00 +10°C° 0 mm 1 mps 757 mmHg 68%
    08:00 +10°C° 0 mm 1 mps 757 mmHg 68%
    09:00 +12°C° 0 mm 1 mps 757 mmHg 63%
    10:00 +13°C° 0 mm 1 mps 757 mmHg 58%
    11:00 +15°C° 0 mm 1 mps 757 mmHg 53%
    12:00 +15°C° 0 mm 2 mps 756 mmHg 52%
    13:00 +16°C° 0 mm 2 mps 756 mmHg 51%
    14:00 +17°C° 0 mm 3 mps 755 mmHg 50%
    15:00 +16°C° 0 mm 3 mps 755 mmHg 56%
    16:00 +15°C° 0 mm 2 mps 755 mmHg 62%
    17:00 +14°C° 0 mm 2 mps 755 mmHg 67%
    18:00 +14°C° 0 mm 2 mps 755 mmHg 71%
    19:00 +13°C° 0 mm 2 mps 755 mmHg 75%
    20:00 +13°C° 0 mm 2 mps 755 mmHg 79%
    21:00 +12°C° 0 mm 2 mps 755 mmHg 80%
    22:00 +12°C° 0 mm 2 mps 755 mmHg 82%
    23:00 +12°C° 0 mm 2 mps 755 mmHg 84%

    Tomorrow, 16 December, Saturday

    Time Temperature Precipitation Wind Pressure Humidity
    00:00 +12°C° 0 mm 2 mps 755 mmHg 84%
    01:00 +12°C° 0 mm 2 mps 754 mmHg 85%
    02:00 +12°C° 0 mm 2 mps 754 mmHg 85%
    03:00 +12°C° 0 mm 2 mps 754 mmHg 85%
    04:00 +12°C° 0 mm 2 mps 753 mmHg 86%
    05:00 +10°C° 0 mm 2 mps 753 mmHg 86%
    06:00 +11°C° 0 mm 3 mps 753 mmHg 86%
    07:00 +11°C° 0 mm 3 mps 753 mmHg 87%
    08:00 +11°C° 0 mm 3 mps 753 mmHg 87%
    09:00 +12°C° 0 mm 3 mps 753 mmHg 82%
    10:00 +14°C° 0 mm 3 mps 752 mmHg 77%
    11:00 +15°C° 0 mm 4 mps 752 mmHg 72%
    12:00 +17°C° 0 mm 4 mps 752 mmHg 68%
    13:00 +18°C° 0 mm 4 mps 751 mmHg 64%
    14:00 +18°C° 0 mm 4 mps 751 mmHg 60%
    15:00 +17°C° 0.4 mm 4 mps 751 mmHg 66%
    16:00 +15°C° 0.4 mm 4 mps 751 mmHg 72%
    17:00 +14°C° 0.4 mm 3 mps 750 mmHg 79%
    18:00 +14°C° 0.6 mm 3 mps 750 mmHg 82%
    19:00 +15°C° 0.6 mm 2 mps 750 mmHg 85%
    20:00 +14°C° 0.6 mm 2 mps 750 mmHg 87%
    21:00 +14°C° 0.5 mm 2 mps 750 mmHg 88%
    22:00 +14°C° 0.5 mm 2 mps 750 mmHg 89%
    23:00 +14°C° 0.5 mm 1 mps 750 mmHg 90%

    Day after tomorrow, 17 December, Sunday

    Time Temperature Precipitation Wind Pressure Humidity
    00:00 +13°C° 0 mm 2 mps 750 mmHg 91%
    01:00 +13°C° 0 mm 2 mps 750 mmHg 91%
    02:00 +13°C° 0 mm 2 mps 750 mmHg 92%
    03:00 +12°C° 0 mm 2 mps 751 mmHg 91%
    04:00 +12°C° 0 mm 2 mps 751 mmHg 91%
    05:00 +12°C° 0 mm 2 mps 751 mmHg 90%
    06:00 +10°C° 0.1 mm 2 mps 752 mmHg 87%
    07:00 +10°C° 0.1 mm 3 mps 752 mmHg 83%
    08:00 +10°C° 0.1 mm 3 mps 753 mmHg 80%
    09:00 +11°C° 0 mm 3 mps 753 mmHg 71%
    10:00 +12°C° 0 mm 3 mps 754 mmHg 62%
    11:00 +13°C° 0 mm 4 mps 754 mmHg 53%
    12:00 +13°C° 0 mm 4 mps 754 mmHg 51%
    13:00 +14°C° 0 mm 4 mps 754 mmHg 48%
    14:00 +14°C° 0 mm 4 mps 755 mmHg 46%
    15:00 +13°C° 0 mm 4 mps 755 mmHg 49%
    16:00 +12°C° 0 mm 3 mps 756 mmHg 52%
    17:00 +11°C° 0 mm 3 mps 756 mmHg 56%
    18:00 +10°C° 0 mm 3 mps 757 mmHg 58%
    19:00 +9°C° 0 mm 3 mps 758 mmHg 61%
    20:00 +9°C° 0 mm 3 mps 758 mmHg 64%
    21:00 +8°C° 0 mm 3 mps 759 mmHg 64%
    22:00 +8°C° 0 mm 3 mps 760 mmHg 65%
    23:00 +6°C° 0 mm 4 mps 760 mmHg 66%

    18 December, Monday

    Time Temperature Precipitation Wind Pressure Humidity
    00:00 +6°C° 0 mm 4 mps 760 mmHg 66%
    01:00 +5°C° 0 mm 4 mps 761 mmHg 66%
    02:00 +5°C° 0 mm 4 mps 761 mmHg 67%
    03:00 +5°C° 0 mm 4 mps 761 mmHg 67%
    04:00 +4°C° 0 mm 4 mps 761 mmHg 68%
    05:00 +4°C° 0 mm 4 mps 761 mmHg 68%
    06:00 +4°C° 0 mm 4 mps 762 mmHg 68%
    07:00 +4°C° 0 mm 4 mps 762 mmHg 68%
    08:00 +3°C° 0 mm 4 mps 763 mmHg 68%
    09:00 +4°C° 0 mm 4 mps 763 mmHg 64%
    10:00 +5°C° 0 mm 5 mps 763 mmHg 59%
    11:00 +6°C° 0 mm 5 mps 763 mmHg 55%
    12:00 +6°C° 0 mm 5 mps 763 mmHg 52%
    13:00 +7°C° 0 mm 5 mps 763 mmHg 50%
    14:00 +7°C° 0 mm 5 mps 762 mmHg 47%
    15:00 +7°C° 0 mm 5 mps 762 mmHg 49%
    16:00 +6°C° 0 mm 5 mps 763 mmHg 50%
    17:00 +5°C° 0 mm 4 mps 763 mmHg 52%
    18:00 +4°C° 0 mm 4 mps 763 mmHg 53%
    19:00 +4°C° 0 mm 4 mps 764 mmHg 55%
    20:00 +3°C° 0 mm 4 mps 764 mmHg 56%
    21:00 +3°C° 0 mm 4 mps 765 mmHg 57%
    22:00 +3°C° 0 mm 3 mps 765 mmHg 58%
    23:00 +2°C° 0 mm 3 mps 765 mmHg 58%

    19 December, Tuesday

    Time Temperature Precipitation Wind Pressure Humidity
    00:00 +2°C° 0 mm 3 mps 766 mmHg 58%
    01:00 +2°C° 0 mm 3 mps 766 mmHg 58%
    02:00 +3°C° 0 mm 2 mps 766 mmHg 58%
    03:00 +3°C° 0 mm 2 mps 766 mmHg 57%
    04:00 +3°C° 0 mm 2 mps 766 mmHg 57%
    05:00 +2°C° 0 mm 2 mps 766 mmHg 57%
    06:00 +2°C° 0 mm 2 mps 766 mmHg 56%
    07:00 +2°C° 0 mm 2 mps 767 mmHg 55%
    08:00 +2°C° 0 mm 2 mps 767 mmHg 54%
    09:00 +3°C° 0 mm 2 mps 767 mmHg 50%
    10:00 +5°C° 0 mm 2 mps 767 mmHg 46%
    11:00 +6°C° 0 mm 2 mps 768 mmHg 43%
    12:00 +6°C° 0 mm 2 mps 767 mmHg 41%
    13:00 +7°C° 0 mm 2 mps 767 mmHg 40%
    14:00 +8°C° 0 mm 2 mps 766 mmHg 39%
    15:00 +7°C° 0 mm 2 mps 766 mmHg 42%
    16:00 +7°C° 0 mm 1 mps 766 mmHg 44%
    17:00 +7°C° 0 mm 1 mps 766 mmHg 46%
    18:00 +6°C° 0 mm 1 mps 767 mmHg 48%
    19:00 +6°C° 0 mm 1 mps 767 mmHg 49%
    20:00 +6°C° 0 mm 1 mps 767 mmHg 50%
    21:00 +5°C° 0 mm 1 mps 767 mmHg 51%
    22:00 +4°C° 0 mm 2 mps 767 mmHg 53%
    23:00 +4°C° 0 mm 2 mps 767 mmHg 54%

    20 December, Wednesday

    Time Temperature Precipitation Wind Pressure Humidity
    00:00 +4°C° 0 mm 2 mps 767 mmHg 55%
    01:00 +4°C° 0 mm 2 mps 767 mmHg 56%
    02:00 +4°C° 0 mm 2 mps 767 mmHg 56%
    03:00 +4°C° 0 mm 2 mps 766 mmHg 57%
    04:00 +3°C° 0 mm 2 mps 766 mmHg 59%
    05:00 +3°C° 0 mm 2 mps 766 mmHg 60%
    06:00 +3°C° 0 mm 2 mps 766 mmHg 61%
    07:00 +3°C° 0 mm 2 mps 766 mmHg 62%
    08:00 +3°C° 0 mm 2 mps 766 mmHg 63%
    09:00 +4°C° 0 mm 2 mps 766 mmHg 60%
    10:00 +5°C° 0 mm 2 mps 766 mmHg 58%
    11:00 +6°C° 0 mm 2 mps 766 mmHg 55%
    12:00 +6°C° 0.1 mm 2 mps 766 mmHg 54%
    13:00 +7°C° 0.1 mm 2 mps 765 mmHg 53%
    14:00 +7°C° 0.1 mm 2 mps 765 mmHg 52%
    15:00 +6°C° 0 mm 2 mps 765 mmHg 54%
    16:00 +6°C° 0 mm 2 mps 765 mmHg 57%
    17:00 +5°C° 0 mm 2 mps 765 mmHg 59%
    18:00 +5°C° 0 mm 2 mps 766 mmHg 61%
    19:00 +5°C° 0 mm 2 mps 766 mmHg 62%
    20:00 +4°C° 0 mm 2 mps 767 mmHg 64%
    21:00 +4°C° 0 mm 2 mps 767 mmHg 65%
    22:00 +4°C° 0 mm 2 mps 767 mmHg 67%
    23:00 +3°C° 0 mm 3 mps 768 mmHg 68%
    Show more